Погода в Туле

Хотите узнать прогноз погоды в Туле? Тогда Вам сюда: Погода в Туле

Поиск расширенной информации на нашем сайте:

Полезная информация:

Новости сайта



02.01.2020
Опубликован Долгосрочный прогноз погоды по городам России и ближнего зарубежья на январь 2020 года.
Карты: Прогноз на январь и февраль 2020 года, Сравнение прогнозируемой аномалии приземной температуры воздуха на январь 2020 года по разным моделям.




Погода в Туле - сегодня

Время (UTC), дата Ветер
(°,м/с) 
Видим.   Явления Облачность Т
(°С)
Тd
(°С)
f(%) Тe
(°С)
Pmin
(гПа)
dP
(гПа)
Po
(мм)
O2
(г/м3)
Тmin Tmax R s Состояние
почвы
15 27.03.20 100 (В) 10 км    8/0 средняя, верхняя 
[Ac trans|Ci fib]
+14.5 -2.1 32 +15  1029.7  -1.6  754  289           
18 27.03.20 040 (СВ) 10 км    8/0 средняя, верхняя 
[Ac trans|Ci fib]
+10.7 -0.8 45 +12  1029.6  -0.4  754  292    +16.2       
21 27.03.20 030 (СВ) 10 км    6/0 средняя, верхняя 
[Ac trans|Ci fib]
+8.2 +0.1 57 +9  1029  -0.8  753  295           
00 28.03.20 040 (СВ) 10 км    3/0 верхняя 
[Ci fib]
+3.2 -0.6 76 +4  1028.3  -1.1  752  300           
03 28.03.20 050 (СВ) 10 км    6/0 средняя, верхняя 
[Ac trans|Ci fib]
+0.8 -1.2 86 +1  1027.2  -1.3  751  302  +0.5         
06 28.03.20 120 (ЮВ) 10 км    6/0 верхняя 
[Ci fib]
+6.8 -0.2 61 +8  1025.8  -0.8  751  295  +0.5         
09 28.03.20 150 (ЮВ) 10 км    8/0 верхняя 
[Ci fib]
+15.1 +1.4 39 +15  1022.9  -2.1  749  286           
12 28.03.20 160 (Ю) 10 км    4/0 верхняя 
[Ci fib]
+16.8 +0.5 33 +18  1020.1  -2.7  747  283           
15 28.03.20 150 (ЮВ) 10 км    4/0 верхняя 
[Ci fib]
+15.7 +2.9 42 +16  1017.6  -2.4  745  283           
18 28.03.20 140 (ЮВ) 10 км    ясно 
+12.2 +0.8 46 +13  1017.1  -0.8  745  287    +16.8       
21 28.03.20 130 (ЮВ) 10 км    ясно 
+8.8 -1.7 48 +10  1016.3  -1.1  744  291           
00 29.03.20 010 (С) 10 км    ясно 
+3.8 -0.8 72 +5  1015.7  -1.1  743  295           
03 29.03.20 030 (СВ) 10 км    4/0 средняя, верхняя 
[Ac trans|Ci fib]
+1.2 -0.8 86 +2  1014.2  -1.6  742  298  +1.2         
06 29.03.20 100 (В) 10 км    10/0 средняя, верхняя 
[Ac trans|Ci fib]
+5.8 -0.5 64 +7  1012.7  -1.2  741  292  +1         
09 29.03.20 120 (ЮВ) 10 км    10/0 средняя, верхняя 
[Ac trans|Ci fib]
+13.8 -1.5 35 +14  1010.3  -1.6  740  284           
12 29.03.20 160 (Ю) 10 км    10/0 средняя, верхняя 
[Ac trans|Ci fib]
+16.2 -4.2 24 +16  1008  -2  738  281           
15 29.03.20 150 (ЮВ) 10 км    10/9 600 м кучево-дожд., средняя 
[Cb calv|Ac und]
+15 -4.5 26 +16  1006.6  -1.6  737  282           
18 29.03.20 160 (Ю) 10 км    9/0 средняя 
[Ac trans]
+12.1 -6.5 27 +12  1006.4  -0.2  737  285    +16.5       
21 29.03.20 тихо ()   10 км    10/0 средняя 
[Ac und]
+9.3 -5.1 36 +9  1005.2  -1.5  736  287           
00 30.03.20 тихо ()   10 км    9/0 средняя, верхняя 
[Ac trans|Ci fib]
+5.6 -4.7 47 +6  1004.1  -1.4  735  291           
03 30.03.20 350 (С) 10 км    10/10 1000 м 
[Sc]
+4.4 -4.5 52 +5  1003.2  -1  734  291  +4         
06 30.03.20 030 (СВ) 10 км    8/5 1000 м средняя, верхняя 
[Sc|Ac trans|Ci fib]
+6.6 -2.4 53 +6  1003.9  0.9  735  289  +4         
09 30.03.20 360 (С) 10 км    8/3 1000 м средняя, верхняя 
[Sc|Ac trans|Ci fib]
+6.1 -1.1 60 +4  1004.6  0.7  735  290           
12 30.03.20 350 (С) 10 км    9/6 1000 м средняя, верхняя 
[Sc|Ac trans|Ci fib]
+6.4 -1.3 58 +5  1005.3  0.7  736  290           
15 30.03.20 340 (С) 5{11}  10 км    9/3 1000 м средняя, верхняя 
[Sc|Ac trans|Ci fib]
+3.6 -3.4 60 +1  1006.2  0.6  736  293           
Время (UTC), дата Ветер
(°,м/с) 
Видим.   Явления Облачность Т
(°С)
Тd
(°С)
f(%) Тe
(°С)
Pmin
(гПа)
dP
(гПа)
Po
(мм)
O2
(г/м3)
Тmin Tmax R s Состояние
почвы

Для получения пояснительной информации подведите курсор к названию столбца.

ПОГОДА в Туле - архив

Всё, что Вы хотите узнать о погоде в Туле - удобно и подробно!

Выберите нужную дату (начиная с 1 января 2019* года) и нажмите кнопку "Найти".
Будут отображены архивные сводки погоды по пункту Тула, начиная с указанной даты.


Отображать данные в формате CSV (для использования в таблицах Excel)


Внимание! Наш архив погоды предназначен исключительно для личного некоммерческого использования в познавательных целях. Если Вам необходимы официальные справки о состоянии погоды (для производственных, юридических, коммерческих и т.п. целей), обращайтесь в органы Росгидромета.

*Примечание: данная дата относится к архиву по метеостанциям СССР (Россия, СНГ, Балтия).
Архив по метеостанциям Зарубежной Европы и Азии (кроме Китая) хранится 10 дней, по другим регионам земного шара (Китай, Африка, Америка, Австралия, Океания) - 1 день.

Тула - район местоположения метеостанции


Название, широта, долгота, высота метеостанции:
Тула 54.2°ш. 37.6°д. 203 м над ур. моря [Российская Федерация]

Дополнительная информация

В oтличие oт бoльшинства пoгoдных сайтoв мы публикуем пoдрoбную метеoинфoрмацию в детальнoм прoфессиoнальнoм фoрмате.

Характеристики температуры и влажнoсти вoздуха измеряются на высoте 2 м в тени вдали oт зданий и деревьев.
Скoрoсть ветра измеряется на высoте 10 м (на урoвне рoста челoвека скoрoсть ветра ниже в 1.5-2 раза). Если метеoстанция нахoдится в гoрoде или в лесу, тo скoрoсть ветра занижена на 2-4 м/с пo сравнению с oткрытым местoм. Скoрoсть ветра над акватoриями крупных рек и oзёр, а также на вершинах хoлмoв на 2-5 м/с выше, чем в oбычных услoвиях.
Атмoсфернoе давление в разных тoчках местнoсти мoжет значительнo oтличаться oт давления на метеoстанции, в зависимoсти oт услoвий рельефа (при пoдъёме на 10 м давление пoнижается примернo на 1 мм рт.ст.).